Regional Weather Roundup
Issued by NWS Midland/Odessa, TX

Skip options and go directly to product.
Home | Oldest Version | Next Version | Current Version | All | Text Only | Save Text | Print | Product List | Glossary On

Skip product version selection by date and time.   
712
ASUS44 KMAF 181010
RWRMAF
MIDLAND AREA WEATHER ROUNDUP
NATIONAL WEATHER SERVICE MIDLAND TX
500 AM CDT SAT APR 18 2015

...IN SOUTHWEST TEXAS AND SOUTHEAST NEW MEXICO...

CITY           SKY/WX    TMP DP  RH WIND       PRES   REMARKS
ALPINE         PTCLDY    53  40  61 CALM      30.07S
ANDREWS        FAIR      53  32  44 CALM      29.96S
ARTESIA        CLEAR     39  28  65 NW9       30.00F WCI  33
BIG SPRING     PTCLDY    59  55  89 SE9       29.96F
CARLSBAD       PTCLDY    46  27  47 NW7       29.97S
DRYDEN           N/A     65  61  87 E9        29.91F
FORT STOCKTON  MOCLDY    58  34  40 W3        29.95F
GUAD PASS      CLEAR     48   7  18 SW12      30.03F
HOBBS          PTCLDY    43  36  75 CALM      29.97F
MARFA          PTCLDY    45  37  76 N8        30.03F
MIDLAND AIRPK  MOCLDY    58  55  89 SE5       29.95S
MIDLAND INTL   MOCLDY    55  52  89 SE5       29.94S
ODESSA         MOCLDY    54  39  57 VRB5      29.96R
PECOS          PTCLDY    51  31  47 W7        29.95S
PRESIDIO       FAIR      63  43  48 N8G17     29.94R
SEMINOLE       MOCLDY    45  36  70 NW3       29.96F
SNYDER         PTCLDY   N/A N/A N/A S9        29.94F
WINK           MOCLDY    53  24  32 W3        29.92F
$$
...OTHER STATIONS IN TEXAS...

CITY           SKY/WX    TMP DP  RH WIND       PRES   REMARKS
ABILENE        CLOUDY    62  60  93 S10       29.93S
AMARILLO       PTCLDY    48  47  96 S7        29.95F
AUSTIN         MOCLDY    64  64 100 N5        29.85S
BROWNSVILLE    CLOUDY    75  74  96 NE7       29.82R FOG
CORPUS CHRISTI CLOUDY    70  67  90 S8        29.78F
DALLAS FTW     MOCLDY    62  61  96 N5        29.88F
DEL RIO        CLOUDY    64  63  96 CALM      29.88S FOG
EL PASO        FAIR      49  14  24 S6        30.00S
HOUSTON INT    CLOUDY    68  67  96 NE7       29.82S
LUBBOCK        FOG       48  47  96 E6        29.93S VSB 1/4
SAN ANGELO     CLOUDY    58  56  93 W3        29.95R
SAN ANTONIO    CLOUDY    68  65  90 N5        29.85F
WACO           CLOUDY    64  63  96 N6        29.87S FOG
WICHITA FALLS  NOT AVBL
$$
...OTHER LOCATIONS IN NEW MEXICO...

CITY           SKY/WX    TMP DP  RH WIND       PRES   REMARKS
ALAMAGORDO     PTCLDY    46  19  34 NE6       29.99S
ALBUQUERQUE    CLOUDY    36  24  62 SE7       30.00F WCI  30
CANNON AFB     NOT AVBL
CLOVIS         CLEAR     37  21  52 NW12      29.97F WCI  30
HOLLOMAN AFB   PTCLDY    39  16  38 VRB6      29.98S WCI  35
ROSWELL        CLEAR     38  30  73 CALM      30.00R
RUIDOSO        CLEAR     39  16  38 W8        30.05F WCI  34
SANTA FE       LGT SNOW  33  30  88 NW6       29.99F FOG     WCI  28
TRUTH OR CONSE FAIR      44  17  33 NW7       30.00F
TUCUMCARI      CLEAR     34  17  50 S6        29.95F WCI  29
$$

USA.gov is the U.S. government's official web portal to all federal, state and local government web resources and services.